Year,Month,Day,Hour,Minute,Value (Times are PST for temperature in C)
2009,04,17,00,00,6.60
2009,04,17,00,01,6.60
2009,04,17,00,02,6.60
2009,04,17,00,03,6.60
2009,04,17,00,04,6.60
2009,04,17,00,05,6.60
2009,04,17,00,06,6.60
2009,04,17,00,07,6.60
2009,04,17,00,08,6.60
2009,04,17,00,09,6.60
2009,04,17,00,10,6.60
2009,04,17,00,11,6.50
2009,04,17,00,12,6.50
2009,04,17,00,13,6.50
2009,04,17,01,02,6.40
2009,04,17,01,03,6.40
2009,04,17,01,04,6.40
2009,04,17,01,05,6.40
2009,04,17,01,06,6.40
2009,04,17,01,07,6.40
2009,04,17,01,08,6.40
2009,04,17,01,09,6.40
2009,04,17,01,10,6.40
2009,04,17,01,11,6.40
2009,04,17,01,12,6.40
2009,04,17,01,13,6.40
2009,04,17,01,14,6.40
2009,04,17,01,15,6.40
2009,04,17,01,16,6.40
2009,04,17,01,17,6.40
2009,04,17,01,18,6.40
2009,04,17,01,19,6.40
2009,04,17,01,20,6.40
2009,04,17,01,21,6.40
2009,04,17,01,22,6.40
2009,04,17,01,23,6.40
2009,04,17,01,24,6.40
2009,04,17,01,25,6.40
2009,04,17,01,26,6.40
2009,04,17,01,27,6.40
2009,04,17,01,28,6.40
2009,04,17,01,29,6.40
2009,04,17,01,30,6.40
2009,04,17,01,31,6.40
2009,04,17,01,32,6.40
2009,04,17,01,33,6.40
2009,04,17,01,34,6.40
2009,04,17,01,35,6.40
2009,04,17,01,36,6.40
2009,04,17,01,37,6.40
2009,04,17,01,38,6.40
2009,04,17,01,39,6.40
2009,04,17,01,40,6.40
2009,04,17,01,41,6.40
2009,04,17,01,42,6.40
2009,04,17,01,43,6.40
2009,04,17,01,44,6.40
2009,04,17,01,45,6.40
2009,04,17,01,46,6.40
2009,04,17,01,47,6.40
2009,04,17,01,48,6.40
2009,04,17,01,49,6.40
2009,04,17,01,50,6.40
2009,04,17,01,51,6.40
2009,04,17,01,52,6.40
2009,04,17,01,53,6.40
2009,04,17,01,54,6.40
2009,04,17,01,55,6.40
2009,04,17,01,56,6.40
2009,04,17,01,57,6.40
2009,04,17,01,58,6.40
2009,04,17,01,59,6.40
2009,04,17,02,00,6.40
2009,04,17,02,01,6.40
2009,04,17,02,02,6.40
2009,04,17,02,03,6.40
2009,04,17,02,04,6.40
2009,04,17,02,05,6.40
2009,04,17,02,06,6.50
2009,04,17,02,07,6.50
2009,04,17,02,08,6.50
2009,04,17,02,09,6.40
2009,04,17,02,10,6.50
2009,04,17,02,11,6.50
2009,04,17,02,12,6.50
2009,04,17,02,13,6.50
2009,04,17,02,14,6.50
2009,04,17,02,15,6.50
2009,04,17,02,16,6.50
2009,04,17,02,17,6.50
2009,04,17,02,18,6.60
2009,04,17,02,19,6.60
2009,04,17,02,20,6.60
2009,04,17,02,21,6.60
2009,04,17,02,22,6.60
2009,04,17,02,23,6.60
2009,04,17,02,24,6.60
2009,04,17,02,25,6.60
2009,04,17,02,26,6.60
2009,04,17,02,27,6.60
2009,04,17,02,28,6.60
2009,04,17,02,29,6.60
2009,04,17,02,30,6.60
2009,04,17,02,31,6.60
2009,04,17,02,32,6.60
2009,04,17,02,33,6.60
2009,04,17,02,34,6.60
2009,04,17,02,35,6.60
2009,04,17,02,36,6.60
2009,04,17,02,37,6.60
2009,04,17,02,38,6.60
2009,04,17,02,39,6.60
2009,04,17,02,40,6.60
2009,04,17,02,41,6.60
2009,04,17,02,42,6.60
2009,04,17,02,43,6.60
2009,04,17,02,44,6.60
2009,04,17,02,45,6.50
2009,04,17,02,46,6.50
2009,04,17,02,47,6.50
2009,04,17,02,48,6.50
2009,04,17,02,49,6.50
2009,04,17,02,50,6.50
2009,04,17,02,51,6.50
2009,04,17,02,52,6.50
2009,04,17,02,53,6.50
2009,04,17,02,54,6.50
2009,04,17,02,55,6.40
2009,04,17,02,56,6.50
2009,04,17,02,57,6.40
2009,04,17,02,58,6.50
2009,04,17,02,59,6.40
2009,04,17,03,00,6.50
2009,04,17,03,01,6.50
2009,04,17,03,02,6.50
2009,04,17,03,03,6.50
2009,04,17,03,04,6.50
2009,04,17,03,05,6.50
2009,04,17,03,06,6.50
2009,04,17,03,07,6.50
2009,04,17,03,08,6.50
2009,04,17,03,09,6.60
2009,04,17,03,10,6.60
2009,04,17,03,11,6.60
2009,04,17,03,12,6.60
2009,04,17,03,13,6.60
2009,04,17,03,14,6.60
2009,04,17,03,15,6.60
2009,04,17,03,16,6.60
2009,04,17,03,17,6.60
2009,04,17,03,18,6.60
2009,04,17,03,19,6.60
2009,04,17,03,20,6.60
2009,04,17,03,21,6.60
2009,04,17,03,22,6.60
2009,04,17,03,23,6.60
2009,04,17,03,24,6.60
2009,04,17,03,25,6.60
2009,04,17,03,26,6.60
2009,04,17,03,27,6.60
2009,04,17,03,28,6.60
2009,04,17,03,29,6.60
2009,04,17,03,30,6.60
2009,04,17,03,31,6.60
2009,04,17,03,32,6.60
2009,04,17,03,33,6.60
2009,04,17,03,34,6.60
2009,04,17,03,35,6.60
2009,04,17,03,36,6.60
2009,04,17,03,37,6.60
2009,04,17,03,38,6.60
2009,04,17,03,39,6.70
2009,04,17,03,40,6.70
2009,04,17,03,41,6.70
2009,04,17,03,42,6.70
2009,04,17,03,43,6.70
2009,04,17,03,44,6.70
2009,04,17,03,45,6.70
2009,04,17,03,46,6.70
2009,04,17,03,47,6.70
2009,04,17,03,48,6.70
2009,04,17,03,49,6.70
2009,04,17,03,50,6.70
2009,04,17,03,51,6.70
2009,04,17,03,52,6.70
2009,04,17,03,53,6.70
2009,04,17,03,54,6.70
2009,04,17,03,55,6.70
2009,04,17,03,56,6.70
2009,04,17,03,57,6.70
2009,04,17,03,58,6.70
2009,04,17,03,59,6.70
2009,04,17,04,00,6.70
2009,04,17,04,01,6.70
2009,04,17,04,02,6.70
2009,04,17,04,03,6.70
2009,04,17,04,04,6.80
2009,04,17,04,05,6.80
2009,04,17,04,06,6.80
2009,04,17,04,07,6.80
2009,04,17,04,08,6.80
2009,04,17,04,09,6.80
2009,04,17,04,10,6.80
2009,04,17,04,11,6.80
2009,04,17,04,12,6.80
2009,04,17,04,13,6.80
2009,04,17,04,14,6.80
2009,04,17,04,15,6.80
2009,04,17,04,16,6.80
2009,04,17,04,17,6.90
2009,04,17,04,18,6.90
2009,04,17,04,19,6.90
2009,04,17,04,20,6.80
2009,04,17,04,21,6.80
2009,04,17,04,22,6.80
2009,04,17,04,23,6.80
2009,04,17,04,24,6.90
2009,04,17,04,25,6.90
2009,04,17,04,26,6.90
2009,04,17,04,27,6.90
2009,04,17,04,28,6.90
2009,04,17,04,29,6.90
2009,04,17,04,30,6.80
2009,04,17,04,31,6.80
2009,04,17,04,32,6.80
2009,04,17,04,33,6.80
2009,04,17,04,34,6.80
2009,04,17,04,35,6.80
2009,04,17,04,36,6.80
2009,04,17,04,37,6.80
2009,04,17,04,38,6.80
2009,04,17,04,39,6.80
2009,04,17,04,40,6.80
2009,04,17,04,41,6.80
2009,04,17,04,42,6.80
2009,04,17,04,43,6.80
2009,04,17,04,44,6.80
2009,04,17,04,45,6.90
2009,04,17,04,46,6.90
2009,04,17,04,47,6.90
2009,04,17,04,48,6.90
2009,04,17,04,49,6.90
2009,04,17,04,50,6.90
2009,04,17,04,51,6.90
2009,04,17,04,52,6.90
2009,04,17,04,53,6.90
2009,04,17,04,54,6.90
2009,04,17,04,55,6.90
2009,04,17,04,56,6.90
2009,04,17,04,57,6.80
2009,04,17,04,58,6.80
2009,04,17,04,59,6.80
2009,04,17,05,00,6.80
2009,04,17,05,01,6.80
2009,04,17,05,02,6.80
2009,04,17,05,03,6.80
2009,04,17,05,04,6.80
2009,04,17,05,05,6.90
2009,04,17,05,06,7.00
2009,04,17,05,07,7.00
2009,04,17,05,08,7.10
2009,04,17,05,09,7.10
2009,04,17,05,10,7.20
2009,04,17,05,11,7.20
2009,04,17,05,12,7.20
2009,04,17,05,13,7.20
2009,04,17,05,14,7.20
2009,04,17,05,15,7.20
2009,04,17,05,16,7.20
2009,04,17,05,17,7.20
2009,04,17,05,18,7.20
2009,04,17,05,19,7.10
2009,04,17,05,20,7.10
2009,04,17,05,21,7.10
2009,04,17,05,22,7.10
2009,04,17,05,23,7.00
2009,04,17,05,24,7.00
2009,04,17,05,25,7.00
2009,04,17,05,26,6.90
2009,04,17,05,27,6.90
2009,04,17,05,28,6.90
2009,04,17,05,29,6.90
2009,04,17,05,30,6.80
2009,04,17,05,31,6.80
2009,04,17,05,32,6.80
2009,04,17,05,33,6.80
2009,04,17,05,34,6.80
2009,04,17,05,35,6.80
2009,04,17,05,36,6.80
2009,04,17,05,37,6.80
2009,04,17,05,38,6.70
2009,04,17,05,39,6.70
2009,04,17,05,40,6.70
2009,04,17,05,41,6.70
2009,04,17,05,42,6.70
2009,04,17,05,43,6.70
2009,04,17,05,44,6.70
2009,04,17,05,45,6.70
2009,04,17,05,46,6.70
2009,04,17,05,47,6.70
2009,04,17,05,48,6.70
2009,04,17,05,49,6.70
2009,04,17,05,50,6.70
2009,04,17,05,51,6.70
2009,04,17,05,52,6.70
2009,04,17,05,53,6.70
2009,04,17,05,54,6.70
2009,04,17,05,55,6.70
2009,04,17,05,56,6.70
2009,04,17,05,57,6.70
2009,04,17,05,58,6.70
2009,04,17,05,59,6.70
2009,04,17,06,00,6.60
2009,04,17,06,01,6.60
2009,04,17,06,02,6.60
2009,04,17,06,03,6.60
2009,04,17,06,04,6.60
2009,04,17,06,05,6.60
2009,04,17,06,06,6.60
2009,04,17,06,07,6.60
2009,04,17,06,08,6.60
2009,04,17,06,09,6.60
2009,04,17,06,10,6.60
2009,04,17,06,11,6.60
2009,04,17,06,12,6.60
2009,04,17,06,13,6.60
2009,04,17,06,14,6.60
2009,04,17,06,15,6.60
2009,04,17,06,16,6.60
2009,04,17,06,17,6.60
2009,04,17,06,18,6.60
2009,04,17,06,19,6.60
2009,04,17,06,20,6.60
2009,04,17,06,21,6.60
2009,04,17,06,22,6.60
2009,04,17,06,23,6.60
2009,04,17,06,24,6.60
2009,04,17,06,25,6.60
2009,04,17,06,26,6.70
2009,04,17,06,27,6.70
2009,04,17,06,28,6.70
2009,04,17,06,29,6.70
2009,04,17,06,30,6.70
2009,04,17,06,31,6.80
2009,04,17,06,32,6.80
2009,04,17,06,33,6.80
2009,04,17,06,34,6.90
2009,04,17,06,35,6.90
2009,04,17,06,36,6.90
2009,04,17,06,37,6.90
2009,04,17,06,38,6.90
2009,04,17,06,39,6.90
2009,04,17,06,40,6.90
2009,04,17,06,41,6.90
2009,04,17,06,42,6.90
2009,04,17,06,43,6.90
2009,04,17,06,44,6.90
2009,04,17,06,45,6.90
2009,04,17,06,46,6.90
2009,04,17,06,47,6.80
2009,04,17,06,48,6.80
2009,04,17,06,49,6.80
2009,04,17,06,50,6.80
2009,04,17,06,51,6.80
2009,04,17,06,52,6.80
2009,04,17,06,53,6.80
2009,04,17,06,54,6.80
2009,04,17,06,55,6.80
2009,04,17,06,56,6.80
2009,04,17,06,57,6.80
2009,04,17,06,58,6.70
2009,04,17,06,59,6.70
2009,04,17,07,00,6.70
2009,04,17,07,01,6.70
2009,04,17,07,02,6.70
2009,04,17,07,03,6.80
2009,04,17,07,04,6.80
2009,04,17,07,05,6.80
2009,04,17,07,06,6.80
2009,04,17,07,07,6.80
2009,04,17,07,08,6.90
2009,04,17,07,09,6.90
2009,04,17,07,10,7.00
2009,04,17,07,11,7.00
2009,04,17,07,12,7.10
2009,04,17,07,13,7.10
2009,04,17,07,14,7.20
2009,04,17,07,15,7.20
2009,04,17,07,16,7.20
2009,04,17,07,17,7.20
2009,04,17,07,18,7.20
2009,04,17,07,19,7.20
2009,04,17,07,20,7.30
2009,04,17,07,21,7.30
2009,04,17,07,22,7.30
2009,04,17,07,23,7.30
2009,04,17,07,24,7.30
2009,04,17,07,25,7.30
2009,04,17,07,26,7.30
2009,04,17,07,27,7.30
2009,04,17,07,28,7.40
2009,04,17,07,29,7.40
2009,04,17,07,30,7.40
2009,04,17,07,31,7.40
2009,04,17,07,32,7.40
2009,04,17,07,33,7.50
2009,04,17,07,34,7.50
2009,04,17,07,35,7.50
2009,04,17,07,36,7.60
2009,04,17,07,37,7.60
2009,04,17,07,38,7.60
2009,04,17,07,39,7.60
2009,04,17,07,40,7.60
2009,04,17,07,41,7.60
2009,04,17,07,42,7.60
2009,04,17,07,43,7.60
2009,04,17,07,44,7.70
2009,04,17,07,45,7.70
2009,04,17,07,46,7.70
2009,04,17,07,47,7.70
2009,04,17,07,48,7.70
2009,04,17,07,49,7.70
2009,04,17,07,50,7.70
2009,04,17,07,51,7.70
2009,04,17,07,52,7.70
2009,04,17,07,53,7.80
2009,04,17,07,54,7.90
2009,04,17,07,55,8.00
2009,04,17,07,56,8.10
2009,04,17,07,57,8.20
2009,04,17,07,58,8.30
2009,04,17,07,59,8.40
2009,04,17,08,00,8.50
2009,04,17,08,01,8.60
2009,04,17,08,02,8.70
2009,04,17,08,03,8.80
2009,04,17,08,04,8.80
2009,04,17,08,05,8.80
2009,04,17,08,06,8.80
2009,04,17,08,07,8.90
2009,04,17,08,08,8.90
2009,04,17,08,09,8.90
2009,04,17,08,10,8.90
2009,04,17,08,11,8.90
2009,04,17,08,12,8.90
2009,04,17,08,13,8.90
2009,04,17,08,14,8.90
2009,04,17,08,15,8.90
2009,04,17,08,16,8.90
2009,04,17,08,17,8.80
2009,04,17,08,18,8.80
2009,04,17,08,19,8.80
2009,04,17,08,20,8.70
2009,04,17,08,21,8.70
2009,04,17,08,22,8.70
2009,04,17,08,23,8.70
2009,04,17,08,24,8.70
2009,04,17,08,25,8.80
2009,04,17,08,26,8.90
2009,04,17,08,27,8.90
2009,04,17,08,28,8.90
2009,04,17,08,29,8.90
2009,04,17,08,30,8.90
2009,04,17,08,31,8.80
2009,04,17,08,32,8.90
2009,04,17,08,33,8.90
2009,04,17,08,34,8.90
2009,04,17,08,35,9.00
2009,04,17,08,36,9.10
2009,04,17,08,37,9.20
2009,04,17,08,38,9.20
2009,04,17,08,39,9.20
2009,04,17,08,40,9.20
2009,04,17,08,41,9.20
2009,04,17,08,42,9.10
2009,04,17,08,43,9.10
2009,04,17,08,44,9.10
2009,04,17,08,45,9.00
2009,04,17,08,46,9.00
2009,04,17,08,47,8.90
2009,04,17,08,48,8.90
2009,04,17,08,49,8.90
2009,04,17,08,50,8.90
2009,04,17,08,51,8.90
2009,04,17,08,52,8.90
2009,04,17,08,53,8.90
2009,04,17,08,54,8.90
2009,04,17,08,55,8.90
2009,04,17,08,56,8.90
2009,04,17,08,57,8.90
2009,04,17,08,58,8.80
2009,04,17,08,59,8.80
2009,04,17,09,00,8.80
2009,04,17,09,01,8.70
2009,04,17,09,02,8.70
2009,04,17,09,03,8.60
2009,04,17,09,04,8.60
2009,04,17,09,05,8.60
2009,04,17,09,06,8.60
2009,04,17,09,07,8.60
2009,04,17,09,08,8.60
2009,04,17,09,09,8.60
2009,04,17,09,10,8.60
2009,04,17,09,11,8.60
2009,04,17,09,12,8.60
2009,04,17,09,13,8.60
2009,04,17,09,14,8.60
2009,04,17,09,15,8.60
2009,04,17,09,16,8.60
2009,04,17,09,17,8.60
2009,04,17,09,18,8.70
2009,04,17,09,19,8.70
2009,04,17,09,20,8.70
2009,04,17,09,21,8.70
2009,04,17,09,22,8.80
2009,04,17,09,23,8.80
2009,04,17,09,24,8.90
2009,04,17,09,25,8.90
2009,04,17,09,26,8.90
2009,04,17,09,27,8.90
2009,04,17,09,28,8.90
2009,04,17,09,29,8.90
2009,04,17,09,30,8.90
2009,04,17,09,31,8.90
2009,04,17,09,32,8.90
2009,04,17,09,33,8.90
2009,04,17,09,34,8.90
2009,04,17,09,35,8.90
2009,04,17,09,36,8.90
2009,04,17,09,37,8.90
2009,04,17,09,38,8.90
2009,04,17,09,39,8.90
2009,04,17,09,40,8.90
2009,04,17,09,41,8.90
2009,04,17,09,42,8.90
2009,04,17,09,43,8.90
2009,04,17,09,44,8.90
2009,04,17,09,45,8.90
2009,04,17,09,46,8.90
2009,04,17,09,47,8.90
2009,04,17,09,48,8.90
2009,04,17,09,49,8.90
2009,04,17,09,50,8.90
2009,04,17,09,51,8.90
2009,04,17,09,52,8.90
2009,04,17,09,53,8.90
2009,04,17,09,54,8.90
2009,04,17,09,55,8.90
2009,04,17,09,56,8.90
2009,04,17,09,57,8.90
2009,04,17,09,58,8.90
2009,04,17,09,59,9.00
2009,04,17,10,00,9.00
2009,04,17,10,01,9.00
2009,04,17,10,02,9.10
2009,04,17,10,03,9.10
2009,04,17,10,04,9.10
2009,04,17,10,05,9.20
2009,04,17,10,06,9.30
2009,04,17,10,07,9.40
2009,04,17,10,08,9.50
2009,04,17,10,09,9.70
2009,04,17,10,10,9.70
2009,04,17,10,11,9.80
2009,04,17,10,12,9.80
2009,04,17,10,13,9.80
2009,04,17,10,14,9.90
2009,04,17,10,15,9.90
2009,04,17,10,16,10.00
2009,04,17,10,17,10.10
2009,04,17,10,18,10.10
2009,04,17,10,19,10.20
2009,04,17,10,20,10.20
2009,04,17,10,21,10.30
2009,04,17,10,22,10.30
2009,04,17,10,23,10.30
2009,04,17,10,24,10.40
2009,04,17,10,25,10.40
2009,04,17,10,26,10.40
2009,04,17,10,27,10.40
2009,04,17,10,28,10.40
2009,04,17,10,29,10.40
2009,04,17,10,30,10.50
2009,04,17,10,31,10.50
2009,04,17,10,32,10.50
2009,04,17,10,33,10.40
2009,04,17,10,34,10.40
2009,04,17,10,35,10.40
2009,04,17,10,36,10.40
2009,04,17,10,37,10.50
2009,04,17,10,38,10.50
2009,04,17,10,39,10.60
2009,04,17,10,40,10.80
2009,04,17,10,41,10.90
2009,04,17,10,42,11.10
2009,04,17,10,43,11.20
2009,04,17,10,44,11.30
2009,04,17,10,45,11.30
2009,04,17,10,46,11.30
2009,04,17,10,47,11.30
2009,04,17,10,48,11.30
2009,04,17,10,49,11.30
2009,04,17,10,50,11.20
2009,04,17,10,51,11.20
2009,04,17,10,52,11.20
2009,04,17,10,53,11.20
2009,04,17,10,54,11.20
2009,04,17,10,55,11.20
2009,04,17,10,56,11.20
2009,04,17,10,57,11.20
2009,04,17,10,58,11.10
2009,04,17,10,59,11.00
2009,04,17,11,00,10.80
2009,04,17,11,01,10.70
2009,04,17,11,02,10.50
2009,04,17,11,03,10.50
2009,04,17,11,04,10.40
2009,04,17,11,05,10.40
2009,04,17,11,06,10.40
2009,04,17,11,07,10.50
2009,04,17,11,08,10.50
2009,04,17,11,09,10.60
2009,04,17,11,10,10.80
2009,04,17,11,11,10.90
2009,04,17,11,12,11.10
2009,04,17,11,13,11.30
2009,04,17,11,14,11.40
2009,04,17,11,15,11.50
2009,04,17,11,16,11.70
2009,04,17,11,17,11.80
2009,04,17,11,18,11.80
2009,04,17,11,19,11.80
2009,04,17,11,20,11.80
2009,04,17,11,21,11.80
2009,04,17,11,22,11.70
2009,04,17,11,23,11.70
2009,04,17,11,24,11.70
2009,04,17,11,25,11.50
2009,04,17,11,26,11.40
2009,04,17,11,27,11.30
2009,04,17,11,28,11.10
2009,04,17,11,29,11.00
2009,04,17,11,30,10.80
2009,04,17,11,31,10.70
2009,04,17,11,32,10.60
2009,04,17,11,33,10.50
2009,04,17,11,34,10.50
2009,04,17,11,35,10.50
2009,04,17,11,36,10.60
2009,04,17,11,37,10.60
2009,04,17,11,38,10.70
2009,04,17,11,39,10.90
2009,04,17,11,40,11.00
2009,04,17,11,41,11.30
2009,04,17,11,42,11.50
2009,04,17,11,43,11.80
2009,04,17,11,44,11.90
2009,04,17,11,45,12.00
2009,04,17,11,46,12.00
2009,04,17,11,47,12.10
2009,04,17,11,48,12.10
2009,04,17,11,49,12.20
2009,04,17,11,50,12.30
2009,04,17,11,51,12.40
2009,04,17,11,52,12.40
2009,04,17,11,53,12.40
2009,04,17,11,54,12.40
2009,04,17,11,55,12.30
2009,04,17,11,56,12.20
2009,04,17,11,57,12.10
2009,04,17,11,58,12.10
2009,04,17,11,59,12.10
2009,04,17,12,00,12.10
2009,04,17,12,01,12.10
2009,04,17,12,02,12.20
2009,04,17,12,03,12.20
2009,04,17,12,04,12.30
2009,04,17,12,05,12.30
2009,04,17,12,06,12.30
2009,04,17,12,07,12.30
2009,04,17,12,08,12.30
2009,04,17,12,09,12.30
2009,04,17,12,10,12.30
2009,04,17,12,11,12.30
2009,04,17,12,12,12.40
2009,04,17,12,13,12.30
2009,04,17,12,14,12.30
2009,04,17,12,15,12.30
2009,04,17,12,16,12.20
2009,04,17,12,17,12.20
2009,04,17,12,18,12.20
2009,04,17,12,19,12.20
2009,04,17,12,20,12.20
2009,04,17,12,21,12.20
2009,04,17,12,22,12.30
2009,04,17,12,23,12.30
2009,04,17,12,24,12.30
2009,04,17,12,25,12.40
2009,04,17,12,26,12.40
2009,04,17,12,27,12.30
2009,04,17,12,28,12.20
2009,04,17,12,29,12.20
2009,04,17,12,30,12.20
2009,04,17,12,31,12.20
2009,04,17,12,32,12.20
2009,04,17,12,33,12.20
2009,04,17,12,34,12.30
2009,04,17,12,35,12.30
2009,04,17,12,36,12.30
2009,04,17,12,37,12.30
2009,04,17,12,38,12.30
2009,04,17,12,39,12.20
2009,04,17,12,40,12.30
2009,04,17,12,41,12.30
2009,04,17,12,42,12.30
2009,04,17,12,43,12.40
2009,04,17,12,44,12.50
2009,04,17,12,45,12.60
2009,04,17,12,46,12.60
2009,04,17,12,47,12.70
2009,04,17,12,48,12.70
2009,04,17,12,49,12.70
2009,04,17,12,50,12.60
2009,04,17,12,51,12.60
2009,04,17,12,52,12.70
2009,04,17,12,53,12.70
2009,04,17,12,54,12.70
2009,04,17,12,55,12.80
2009,04,17,12,56,12.90
2009,04,17,12,57,12.90
2009,04,17,12,58,12.90
2009,04,17,12,59,12.90
2009,04,17,13,00,12.90
2009,04,17,13,01,12.90
2009,04,17,13,02,12.90
2009,04,17,13,03,13.00
2009,04,17,13,04,13.00
2009,04,17,13,05,12.90
2009,04,17,13,06,12.90
2009,04,17,13,07,12.90
2009,04,17,13,08,12.90
2009,04,17,13,09,12.70
2009,04,17,13,10,12.70
2009,04,17,13,11,12.70
2009,04,17,13,12,12.70
2009,04,17,13,13,12.80
2009,04,17,13,14,12.80
2009,04,17,13,15,12.90
2009,04,17,13,16,13.00
2009,04,17,13,17,13.10
2009,04,17,13,18,13.10
2009,04,17,13,19,13.10
2009,04,17,13,20,13.20
2009,04,17,13,21,13.20
2009,04,17,13,22,13.10
2009,04,17,13,23,13.20
2009,04,17,13,24,13.20
2009,04,17,13,25,13.20
2009,04,17,13,26,13.10
2009,04,17,13,27,13.00
2009,04,17,13,28,13.00
2009,04,17,13,29,13.00
2009,04,17,13,30,13.00
2009,04,17,13,31,13.00
2009,04,17,13,32,13.00
2009,04,17,13,33,13.10
2009,04,17,13,34,13.10
2009,04,17,13,35,13.20
2009,04,17,13,36,13.20
2009,04,17,13,37,13.20
2009,04,17,13,38,13.30
2009,04,17,13,39,13.40
2009,04,17,13,40,13.50
2009,04,17,13,41,13.50
2009,04,17,13,42,13.40
2009,04,17,13,43,13.40
2009,04,17,13,44,13.40
2009,04,17,13,45,13.30
2009,04,17,13,46,13.30
2009,04,17,13,47,13.30
2009,04,17,13,48,13.30
2009,04,17,13,49,13.30
2009,04,17,13,50,13.30
2009,04,17,13,51,13.40
2009,04,17,13,52,13.50
2009,04,17,13,53,13.50
2009,04,17,13,54,13.60
2009,04,17,13,55,13.50
2009,04,17,13,56,13.30
2009,04,17,13,57,13.30
2009,04,17,13,58,13.30
2009,04,17,13,59,13.30
2009,04,17,14,00,13.30
2009,04,17,14,01,13.20
2009,04,17,14,02,13.30
2009,04,17,14,03,13.30
2009,04,17,14,04,13.40
2009,04,17,14,05,13.50
2009,04,17,14,06,13.60
2009,04,17,14,07,13.60
2009,04,17,14,08,13.60
2009,04,17,14,09,13.60
2009,04,17,14,10,13.60
2009,04,17,14,11,13.60
2009,04,17,14,12,13.60
2009,04,17,14,13,13.60
2009,04,17,14,14,13.60
2009,04,17,14,15,13.60
2009,04,17,14,16,13.60
2009,04,17,14,17,13.60
2009,04,17,14,18,13.60
2009,04,17,14,19,13.50
2009,04,17,14,20,13.50
2009,04,17,14,21,13.60
2009,04,17,14,22,13.60
2009,04,17,14,23,13.70
2009,04,17,14,24,13.90
2009,04,17,14,25,14.00
2009,04,17,14,26,14.10
2009,04,17,14,27,14.10
2009,04,17,14,28,14.00
2009,04,17,14,29,13.90
2009,04,17,14,30,13.90
2009,04,17,14,31,14.00
2009,04,17,14,32,14.10
2009,04,17,14,33,14.30
2009,04,17,14,34,14.30
2009,04,17,14,35,14.30
2009,04,17,14,36,14.30
2009,04,17,14,37,14.10
2009,04,17,14,38,14.00
2009,04,17,14,39,13.90
2009,04,17,14,40,13.90
2009,04,17,14,41,13.90
2009,04,17,14,42,13.90
2009,04,17,14,43,14.00
2009,04,17,14,44,14.10
2009,04,17,14,45,14.30
2009,04,17,14,46,14.40
2009,04,17,14,47,14.40
2009,04,17,14,48,14.30
2009,04,17,14,49,14.30
2009,04,17,14,50,14.10
2009,04,17,14,51,14.10
2009,04,17,14,52,14.10
2009,04,17,14,53,14.10
2009,04,17,14,54,14.10
2009,04,17,14,55,14.10
2009,04,17,14,56,14.00
2009,04,17,14,57,13.90
2009,04,17,14,58,13.70
2009,04,17,14,59,13.50
2009,04,17,15,00,13.40
2009,04,17,15,01,13.30
2009,04,17,15,02,13.40
2009,04,17,15,03,13.50
2009,04,17,15,04,13.60
2009,04,17,15,05,13.60
2009,04,17,15,06,13.70
2009,04,17,15,07,13.60
2009,04,17,15,08,13.60
2009,04,17,15,09,13.50
2009,04,17,15,10,13.40
2009,04,17,15,11,13.50
2009,04,17,15,12,13.60
2009,04,17,15,13,13.80
2009,04,17,15,14,14.00
2009,04,17,15,15,14.00
2009,04,17,15,16,14.10
2009,04,17,15,17,14.00
2009,04,17,15,18,13.90
2009,04,17,15,19,13.80
2009,04,17,15,20,13.80
2009,04,17,15,21,13.80
2009,04,17,15,22,13.70
2009,04,17,15,23,13.60
2009,04,17,15,24,13.50
2009,04,17,15,25,13.40
2009,04,17,15,26,13.30
2009,04,17,15,27,13.40
2009,04,17,15,28,13.40
2009,04,17,15,29,13.40
2009,04,17,15,30,13.50
2009,04,17,15,31,13.60
2009,04,17,15,32,13.70
2009,04,17,15,33,13.70
2009,04,17,15,34,13.80
2009,04,17,15,35,13.80
2009,04,17,15,36,13.70
2009,04,17,15,37,13.70
2009,04,17,15,38,13.60
2009,04,17,15,39,13.60
2009,04,17,15,40,13.70
2009,04,17,15,41,13.70
2009,04,17,15,42,13.70
2009,04,17,15,43,13.80
2009,04,17,15,44,13.80
2009,04,17,15,45,13.80
2009,04,17,15,46,13.80
2009,04,17,15,47,13.80
2009,04,17,15,48,13.70
2009,04,17,15,49,13.60
2009,04,17,15,50,13.60
2009,04,17,15,51,13.60
2009,04,17,15,52,13.50
2009,04,17,15,53,13.50
2009,04,17,15,54,13.50
2009,04,17,15,55,13.40
2009,04,17,15,56,13.30
2009,04,17,15,57,13.10
2009,04,17,15,58,13.00
2009,04,17,15,59,12.90
2009,04,17,16,00,12.90
2009,04,17,16,01,13.00
2009,04,17,16,02,13.00
2009,04,17,16,03,12.90
2009,04,17,16,04,12.80
2009,04,17,16,05,12.80
2009,04,17,16,06,12.80
2009,04,17,16,07,12.80
2009,04,17,16,08,12.80
2009,04,17,16,09,12.80
2009,04,17,16,10,12.80
2009,04,17,16,11,12.90
2009,04,17,16,12,12.90
2009,04,17,16,13,12.90
2009,04,17,16,14,12.90
2009,04,17,16,15,12.80
2009,04,17,16,16,12.80
2009,04,17,16,17,12.70
2009,04,17,16,18,12.70
2009,04,17,16,19,12.70
2009,04,17,16,20,12.80
2009,04,17,16,21,12.80
2009,04,17,16,22,12.80
2009,04,17,16,23,12.80
2009,04,17,16,24,12.80
2009,04,17,16,25,12.80
2009,04,17,16,26,12.80
2009,04,17,16,27,12.80
2009,04,17,16,28,12.70
2009,04,17,16,29,12.60
2009,04,17,16,30,12.60
2009,04,17,16,31,12.60
2009,04,17,16,32,12.60
2009,04,17,16,33,12.50
2009,04,17,16,34,12.60
2009,04,17,16,35,12.60
2009,04,17,16,36,12.60
2009,04,17,16,37,12.60
2009,04,17,16,38,12.50
2009,04,17,16,39,12.40
2009,04,17,16,40,12.30
2009,04,17,16,41,12.20
2009,04,17,16,42,12.20
2009,04,17,16,43,12.20
2009,04,17,16,44,12.20
2009,04,17,16,45,12.20
2009,04,17,16,46,12.20
2009,04,17,16,47,12.20
2009,04,17,16,48,12.20
2009,04,17,16,49,12.20
2009,04,17,16,50,12.30
2009,04,17,16,51,12.30
2009,04,17,16,52,12.30
2009,04,17,16,53,12.30
2009,04,17,16,54,12.30
2009,04,17,16,55,12.30
2009,04,17,16,56,12.30
2009,04,17,16,57,12.40
2009,04,17,16,58,12.40
2009,04,17,16,59,12.40
2009,04,17,17,00,12.40
2009,04,17,17,01,12.40
2009,04,17,17,02,12.30
2009,04,17,17,03,12.30
2009,04,17,17,04,12.20
2009,04,17,17,05,12.20
2009,04,17,17,06,12.10
2009,04,17,17,07,12.10
2009,04,17,17,08,12.00
2009,04,17,17,09,11.90
2009,04,17,17,10,12.00
2009,04,17,17,11,12.00
2009,04,17,17,12,12.00
2009,04,17,17,13,12.00
2009,04,17,17,14,11.90
2009,04,17,17,15,11.80
2009,04,17,17,16,11.70
2009,04,17,17,17,11.60
2009,04,17,17,18,11.50
2009,04,17,17,19,11.40
2009,04,17,17,20,11.30
2009,04,17,17,21,11.30
2009,04,17,17,22,11.20
2009,04,17,17,23,11.20
2009,04,17,17,24,11.20
2009,04,17,17,25,11.20
2009,04,17,17,26,11.20
2009,04,17,17,27,11.20
2009,04,17,17,28,11.20
2009,04,17,17,29,11.30
2009,04,17,17,30,11.30
2009,04,17,17,31,11.30
2009,04,17,17,32,11.30
2009,04,17,17,33,11.30
2009,04,17,17,34,11.30
2009,04,17,17,35,11.30
2009,04,17,17,36,11.20
2009,04,17,17,37,11.20
2009,04,17,17,38,11.10
2009,04,17,17,39,11.00
2009,04,17,17,40,11.00
2009,04,17,17,41,10.90
2009,04,17,17,42,10.90
2009,04,17,17,43,10.90
2009,04,17,17,44,10.90
2009,04,17,17,45,10.90
2009,04,17,17,46,10.90
2009,04,17,17,47,10.80
2009,04,17,17,48,10.80
2009,04,17,17,49,10.80
2009,04,17,17,50,10.80
2009,04,17,17,51,10.80
2009,04,17,17,52,10.80
2009,04,17,17,53,10.80
2009,04,17,17,54,10.70
2009,04,17,17,55,10.70
2009,04,17,17,56,10.70
2009,04,17,17,57,10.70
2009,04,17,17,58,10.70
2009,04,17,17,59,10.70
2009,04,17,18,00,10.80
2009,04,17,18,01,10.80
2009,04,17,18,02,10.70
2009,04,17,18,03,10.70
2009,04,17,18,04,10.70
2009,04,17,18,05,10.70
2009,04,17,18,06,10.70
2009,04,17,18,07,10.80
2009,04,17,18,08,10.70
2009,04,17,18,09,10.80
2009,04,17,18,10,10.80
2009,04,17,18,11,10.80
2009,04,17,18,12,10.80
2009,04,17,18,13,10.70
2009,04,17,18,14,10.70
2009,04,17,18,15,10.70
2009,04,17,18,16,10.70
2009,04,17,18,17,10.70
2009,04,17,18,18,10.70
2009,04,17,18,19,10.60
2009,04,17,18,20,10.60
2009,04,17,18,21,10.60
2009,04,17,18,22,10.60
2009,04,17,18,23,10.60
2009,04,17,18,24,10.60
2009,04,17,18,25,10.60
2009,04,17,18,26,10.60
2009,04,17,18,27,10.50
2009,04,17,18,28,10.50
2009,04,17,18,29,10.50
2009,04,17,18,30,10.50
2009,04,17,18,31,10.50
2009,04,17,18,32,10.50